Dewpoint
56 56 56 57 57 57 57 58 58 58 58 58 58 58 58 58 58 58 58 58 58 58 58 57 57 57 57 58 58 58 58 56 55 53 53 49 57 63 69 70 69 66 72 53 42 37 40 47 48 50 64 65 68 67 69 69 71 68 61 60 57 59 59 60 59 61 60 59 58 62 64 60 57 60 62 61 55 55 52 51 53 55 55 56 60 62 62 64
56 57 57 57 57 57 57 57 57 57 57 58 58 58 58 58 58 58 58 58 58 58 57 57 57 57 57 58 58 59 58 56 54 53 49 55 67 70 71 73 71 68 65 37 30 33 42 46 48 49 63 61 69 67 67 67 70 64 60 60 55 60 59 64 64 62 62 58 63 63 65 61 59 59 59 55 53 51 50 52 53 53 54 56 61 62 63 63
57 57 57 57 57 57 57 57 56 56 57 57 57 58 58 58 58 58 58 58 58 57 57 57 57 57 58 58 58 59 57 54 54 52 50 66 66 71 72 72 70 74 38 24 28 33 39 46 49 49 61 60 63 65 66 67 67 66 59 56 57 61 63 66 66 66 63 62 61 61 62 59 59 61 59 57 53 52 52 52 53 53 52 55 61 62 63 63
57 57 57 57 56 56 56 56 57 57 57 56 57 57 57 57 57 57 57 57 57 57 57 57 57 57 58 58 59 58 55 54 47 48 50 71 71 68 72 72 72 73 39 29 28 30 35 38 39 38 50 61 65 65 62 65 63 63 60 57 58 64 62 66 65 67 67 64 60 61 61 57 59 61 57 56 54 55 54 53 53 52 52 56 61 62 62 63
57 57 57 57 56 56 56 57 57 57 57 57 57 57 56 56 56 56 56 57 57 57 57 57 57 57 58 59 59 57 53 38 44 47 64 71 72 71 72 73 74 60 38 35 32 25 24 27 35 41 53 57 64 61 61 64 66 65 61 63 64 65 63 66 66 68 65 64 60 59 56 56 61 60 59 54 53 52 54 53 53 53 53 54 59 60 60 61
57 57 57 56 56 56 56 56 57 57 56 57 57 56 56 56 56 57 57 57 57 57 57 57 57 58 58 59 58 56 50 36 44 41 70 72 69 71 71 72 72 55 45 39 32 34 36 38 38 43 52 57 60 56 60 61 65 57 60 63 64 65 64 66 69 67 65 64 64 59 60 61 61 59 63 56 54 55 56 54 53 53 52 53 56 58 58 59
57 57 56 56 55 56 56 56 56 56 56 56 56 56 56 56 56 56 56 56 57 57 57 57 57 58 58 59 57 54 45 39 47 58 71 70 69 69 70 72 70 57 48 36 34 35 39 41 43 42 50 54 58 56 61 61 62 59 59 63 64 68 65 67 65 66 63 63 64 65 65 61 60 55 60 56 60 58 54 53 53 52 52 52 53 55 57 58
57 56 56 55 56 56 56 56 56 56 56 56 56 56 56 56 56 56 56 56 56 57 57 57 57 58 58 56 52 44 47 43 43 60 70 70 65 68 69 62 55 46 46 44 42 40 42 43 43 40 38 50 58 55 60 60 61 62 60 64 66 66 65 65 64 64 65 66 65 67 61 59 63 58 59 58 55 52 52 52 52 51 51 51 52 53 55 57
56 55 55 55 56 56 56 56 56 56 55 56 56 56 56 56 56 56 56 56 56 56 56 56 57 58 58 56 50 43 41 48 43 55 67 63 60 66 56 43 47 38 42 44 46 48 47 39 30 30 30 33 53 55 58 58 58 61 60 62 65 64 65 64 65 64 64 66 65 64 63 63 62 61 57 61 51 52 51 51 51 50 50 50 51 54 56 57
55 55 55 56 56 56 56 55 55 55 55 56 56 55 55 55 55 56 56 56 56 56 57 57 57 58 56 53 51 43 43 39 45 57 59 44 53 57 52 45 44 39 39 38 41 43 43 39 31 27 30 46 54 53 58 57 58 61 64 65 64 64 65 65 64 64 64 64 65 64 65 65 64 58 52 61 51 50 50 49 50 49 50 52 54 55 56 55
56 55 55 55 55 55 55 55 55 55 55 55 55 55 55 55 56 56 56 56 56 56 56 57 58 58 55 53 44 42 41 32 36 46 44 41 47 43 41 43 43 40 37 36 36 38 38 34 26 21 34 35 56 56 59 59 63 64 64 64 64 64 64 65 65 65 65 62 64 64 64 64 66 60 52 57 50 49 48 49 49 50 52 54 54 55 56 56
56 55 56 55 55 55 55 55 55 55 55 55 55 55 55 56 56 56 56 56 56 57 58 58 58 56 55 52 46 44 38 36 37 37 34 41 39 38 39 41 41 38 36 34 36 33 30 23 25 25 25 37 53 58 61 64 64 64 63 60 61 63 61 63 64 64 65 63 64 64 61 59 60 57 59 61 51 49 49 50 51 52 53 54 54 55 57 58
56 56 56 56 55 55 55 55 55 55 55 54 54 55 55 56 56 56 57 57 57 57 58 59 58 56 55 48 51 51 51 40 36 38 38 37 36 37 38 41 43 38 35 35 30 25 23 24 24 21 27 35 56 45 62 63 65 64 63 61 59 58 57 62 65 64 63 63 65 64 53 54 57 62 65 66 52 51 52 52 53 53 53 54 55 55 57 59
57 56 56 56 56 56 55 55 56 55 55 54 55 55 55 55 56 57 57 57 58 57 58 59 57 56 53 48 51 46 49 39 39 40 38 38 32 32 35 37 40 42 37 30 24 23 22 22 26 25 27 28 51 61 59 60 62 58 61 60 56 53 53 62 64 64 62 65 64 64 53 53 57 60 63 65 61 51 51 52 53 53 53 54 54 55 56 58
57 57 57 56 56 56 56 55 55 55 55 55 54 54 55 55 56 57 58 58 59 58 57 58 57 54 52 49 52 51 71 33 32 33 37 37 35 35 33 33 31 28 27 26 27 28 27 25 24 23 21 37 56 54 57 58 60 60 53 50 54 51 52 60 64 63 59 62 63 59 53 55 56 59 61 65 61 51 51 52 52 52 53 53 54 54 55 55
57 57 57 56 56 56 56 55 55 55 55 54 54 54 55 55 56 57 58 59 58 59 58 57 55 54 50 45 45 47 36 29 28 30 31 36 35 33 32 31 29 26 26 25 23 23 24 25 22 20 25 29 30 39 55 54 54 57 52 50 51 53 54 57 61 63 63 62 62 61 54 57 56 58 61 64 60 54 52 52 52 53 53 54 54 54 54 55
57 57 56 56 56 56 56 55 55 55 55 54 54 53 54 55 56 58 60 60 58 58 57 51 54 54 43 41 46 30 29 31 35 34 35 35 35 32 30 28 26 23 24 24 25 27 25 23 22 23 27 23 31 38 46 37 48 51 53 51 54 52 54 52 60 63 63 62 60 62 57 57 63 62 62 63 61 54 51 53 52 54 54 54 54 53 54 55
57 56 56 56 56 56 56 55 55 55 54 54 54 53 53 55 57 58 59 60 58 53 52 53 51 45 39 46 40 33 31 34 30 30 32 34 32 29 28 25 22 21 24 23 22 20 21 18 18 14 23 30 29 29 30 31 48 49 49 49 50 56 56 54 55 60 61 61 60 61 59 58 59 62 61 61 62 55 51 53 53 53 55 55 54 53 54 55
57 56 56 56 56 56 56 56 55 54 54 54 54 55 57 57 55 53 54 56 51 46 42 47 42 30 21 30 42 38 26 28 28 24 24 27 28 28 28 35 21 17 16 18 12 18 17 16 16 20 15 19 26 28 28 40 51 51 51 51 52 53 53 54 58 62 60 60 59 59 57 58 56 57 59 60 62 54 54 57 57 55 55 55 54 53 55 55
57 56 56 55 55 56 56 55 54 53 54 51 46 51 52 43 43 45 54 53 46 32 29 35 38 37 37 32 32 30 30 26 20 22 25 27 26 25 24 25 21 17 10 9 12 15 14 12 12 11 13 17 26 28 31 53 52 53 54 53 52 54 56 59 60 62 63 59 58 58 57 57 57 56 58 63 60 56 54 54 54 57 56 55 53 55 55 56
56 56 56 55 55 55 55 54 53 53 53 51 49 35 29 35 31 27 32 41 46 43 35 33 42 36 33 25 27 23 22 23 31 20 21 33 23 21 21 20 18 15 13 9 7 15 12 14 11 11 12 17 21 30 46 52 52 53 53 53 53 55 54 58 58 61 62 59 57 60 58 57 59 59 59 61 60 59 54 53 54 54 56 58 56 56 56 56
56 56 55 55 54 54 54 54 53 53 52 50 49 31 29 29 33 32 33 30 31 36 43 41 40 40 39 37 26 23 27 24 23 22 24 23 21 18 19 15 15 12 16 13 11 17 13 9 9 11 12 17 34 50 50 51 53 51 52 52 54 55 58 60 60 61 61 59 56 59 56 56 58 60 61 61 62 62 61 58 54 53 54 55 55 56 56 56
56 56 55 55 54 53 53 53 52 52 50 49 33 40 40 39 36 37 35 33 31 32 33 35 37 40 39 29 25 18 17 21 21 23 19 19 21 18 19 15 15 13 16 15 8 16 14 8 9 10 11 15 35 48 49 51 53 50 50 50 51 56 55 53 59 59 60 58 56 58 55 56 59 60 60 61 61 64 64 65 64 63 53 54 56 56 56 55
56 56 55 55 55 53 53 52 52 52 50 38 32 29 31 31 30 36 35 31 28 28 29 29 31 30 23 18 24 21 21 23 21 19 27 19 15 18 19 17 16 17 13 10 9 7 7 8 10 10 10 10 27 43 49 47 47 48 49 51 54 56 56 56 57 59 59 59 60 57 54 54 57 55 56 58 64 64 65 63 62 63 64 62 61 59 57 56
56 56 56 55 54 54 52 52 45 44 36 41 39 37 34 35 40 40 36 32 30 30 33 26 26 21 19 24 23 19 20 19 21 21 23 18 19 19 18 21 17 13 12 10 10 7 7 8 10 13 11 11 12 36 46 44 45 48 51 52 53 56 57 58 58 56 55 54 57 54 48 48 55 56 55 57 62 59 61 60 60 60 61 62 60 57 58 57
56 55 55 55 54 53 51 38 45 45 36 19 18 25 30 41 44 43 36 32 27 28 21 16 22 16 24 19 22 21 19 18 19 19 22 18 28 17 20 16 19 12 13 12 10 12 10 13 12 14 17 19 18 36 45 43 43 46 45 51 54 56 57 57 56 54 49 48 54 58 47 44 54 55 57 57 59 59 61 60 58 59 61 61 61 58 57 57
55 55 55 54 54 52 32 26 47 40 17 18 21 27 36 37 46 42 38 34 31 31 17 21 18 21 22 22 19 23 17 19 25 24 25 43 19 24 16 14 15 19 17 16 13 7 16 12 13 18 20 17 18 17 22 41 42 43 46 54 57 57 56 56 55 53 50 57 57 57 55 47 47 54 58 58 57 58 59 59 59 59 59 59 61 58 57 57
56 55 54 53 52 52 45 48 43 32 20 17 26 36 41 41 37 43 39 32 27 21 22 19 21 26 24 22 19 16 20 21 19 20 23 23 21 18 16 13 14 14 18 15 10 7 15 13 15 15 20 16 16 18 23 36 33 35 52 56 56 56 56 56 54 52 53 52 49 54 57 48 47 51 55 58 56 55 57 58 58 59 58 59 60 58 56 57
55 54 53 53 52 51 52 49 46 37 32 30 38 41 41 40 36 37 34 30 25 17 21 18 21 23 22 19 18 19 24 23 18 21 24 20 23 18 15 14 16 16 19 13 8 8 14 15 13 16 17 14 17 18 18 32 42 45 53 55 56 56 56 55 52 52 52 47 45 51 55 46 46 51 54 56 52 52 54 57 58 58 58 59 60 58 56 57
54 54 53 52 50 51 50 50 48 45 43 43 44 41 40 35 37 35 33 34 21 12 18 19 18 16 18 14 16 20 17 21 22 26 23 18 22 21 21 22 19 19 16 19 16 12 12 33 24 16 15 16 15 18 17 30 45 46 52 51 50 51 52 54 52 51 47 42 44 51 54 49 43 50 54 54 54 54 54 57 58 58 62 63 60 59 56 57
53 53 52 52 48 46 47 42 42 47 47 44 37 37 34 35 36 33 30 33 23 14 16 17 14 19 14 15 13 19 17 19 20 23 20 22 18 20 20 15 18 16 19 16 14 15 15 13 12 14 19 16 12 13 13 28 40 46 46 49 48 49 48 49 47 47 40 39 47 52 53 51 43 47 55 58 59 61 60 56 57 57 58 59 58 58 56 56
52 52 52 51 51 51 38 27 33 38 40 39 37 33 30 28 33 30 31 31 30 15 9 9 12 15 13 15 15 16 16 17 17 19 19 17 18 15 15 17 23 15 17 17 13 16 14 13 12 17 31 12 14 10 11 11 18 30 45 47 44 41 40 38 41 38 39 39 47 53 54 50 48 50 57 59 58 58 60 64 63 59 57 61 61 61 63 60
52 51 51 52 52 50 50 42 42 40 40 37 34 31 29 29 26 31 32 32 28 12 7 12 10 12 13 14 12 13 17 12 15 15 17 19 17 16 16 16 17 14 14 22 13 12 13 14 12 13 14 23 9 6 10 9 15 26 41 36 28 32 34 29 35 40 40 46 51 52 53 47 50 56 58 59 61 63 60 61 61 60 62 60 59 61 62 62
51 51 51 52 51 50 50 53 47 45 39 43 31 31 29 25 27 51 33 29 29 20 15 10 10 10 5 2 3 12 14 10 14 15 15 17 16 17 17 17 17 17 16 15 13 15 15 11 9 12 9 14 10 7 9 11 11 20 22 26 26 29 30 25 37 35 39 42 47 53 45 44 46 49 58 61 62 63 65 66 66 63 62 63 64 63 62 62
51 50 51 52 53 51 51 49 49 48 37 28 27 29 27 26 29 27 27 21 13 13 11 6 7 5 5 8 10 11 9 9 13 12 11 9 10 11 14 16 18 15 16 14 24 22 15 15 11 12 11 11 10 10 11 10 16 32 20 27 26 23 35 23 35 42 42 41 42 45 45 48 48 56 59 61 61 62 63 63 66 66 65 63 62 63 62 62
50 48 51 52 53 52 51 50 47 46 31 25 27 25 21 26 25 24 23 21 19 15 15 5 9 6 5 7 12 12 18 12 10 12 13 9 10 12 14 18 13 9 13 14 21 16 21 13 15 17 15 10 11 14 19 12 13 14 16 22 19 26 29 40 44 47 45 41 39 47 46 50 55 57 60 61 62 63 63 63 64 65 66 64 62 63 65 65
49 51 48 49 52 52 50 49 47 40 30 28 27 25 27 26 23 22 34 25 23 21 16 10 9 6 11 6 11 10 11 11 12 8 12 12 12 17 14 17 15 15 16 15 15 16 11 10 16 19 18 19 17 16 17 13 14 13 10 9 22 30 34 36 36 39 38 34 36 45 45 45 46 44 59 58 60 62 61 62 61 65 66 65 65 65 66 66
50 51 53 52 49 48 50 48 39 35 29 28 26 50 40 26 27 23 24 22 21 16 10 11 5 10 13 19 7 8 12 9 8 9 11 13 12 16 16 15 18 18 17 16 15 19 14 14 15 18 18 21 22 23 21 24 24 17 12 20 15 30 25 34 33 30 32 33 35 42 47 46 46 47 54 56 58 60 61 62 63 63 65 65 65 65 65 66
51 53 43 42 51 48 47 41 31 30 27 25 28 29 36 25 24 22 23 22 22 20 15 8 7 14 11 9 11 11 11 8 10 10 18 14 11 18 14 16 16 14 13 11 9 16 21 12 18 20 20 20 23 23 24 23 24 27 24 25 31 34 36 35 35 36 35 33 35 36 41 40 49 48 53 54 57 60 61 61 62 64 62 62 63 64 65 65
49 47 38 37 43 46 42 30 28 30 29 25 30 27 27 23 22 22 21 22 21 19 13 10 12 17 13 9 11 9 11 12 10 10 24 19 15 18 18 19 14 16 17 20 20 21 20 23 17 18 22 23 23 25 29 30 24 22 25 27 28 32 36 35 36 33 32 37 34 35 35 41 50 57 57 56 58 59 61 62 63 64 63 62 63 63 64 64
51 48 46 42 38 41 31 27 26 28 29 30 27 25 25 23 23 22 21 20 19 17 12 10 8 9 12 11 6 13 14 14 12 11 14 16 17 17 21 19 18 16 19 19 21 24 25 22 19 26 22 24 22 28 31 29 26 28 26 30 30 30 31 30 29 34 40 37 34 35 34 44 52 60 60 59 60 60 61 62 63 65 65 65 66 66 65 64
48 35 40 41 39 39 32 26 28 30 25 25 22 24 24 35 24 22 20 18 18 15 13 10 12 10 13 12 10 12 22 17 13 16 13 13 17 18 18 23 19 18 18 21 20 24 25 31 27 26 26 30 26 30 34 31 32 33 32 32 35 34 35 34 29 33 38 46 44 41 39 42 53 60 61 61 61 61 61 62 63 64 65 66 67 66 67 66
41 37 38 41 43 45 31 29 34 30 22 20 23 20 21 21 19 18 16 16 15 14 14 11 11 10 11 10 15 13 16 18 15 16 15 17 17 20 20 17 18 19 21 22 24 22 57 27 28 32 38 37 33 34 32 32 32 31 35 37 33 32 34 35 35 36 38 40 38 40 39 41 52 60 61 61 62 62 61 61 62 63 64 66 66 66 66 66
46 45 45 47 46 42 32 27 30 30 24 19 15 13 15 15 14 12 12 12 16 11 13 14 11 8 12 11 11 13 16 16 20 15 17 21 19 19 18 21 23 23 23 22 23 23 26 32 28 30 32 30 29 31 29 30 32 35 34 40 38 36 37 40 40 39 35 38 42 36 32 40 55 61 61 62 62 62 62 62 62 62 64 65 66 66 67 66
48 49 47 48 49 38 34 34 33 33 32 31 28 18 12 12 12 11 11 11 15 16 18 12 9 9 10 10 14 10 13 14 21 18 16 18 24 21 20 20 22 22 28 27 52 21 24 32 33 27 22 21 21 20 24 26 29 32 45 43 41 37 44 37 35 39 31 40 41 38 39 49 58 59 59 60 60 60 61 62 63 64 64 65 65 66 66 65
46 43 46 44 41 40 40 40 35 33 33 32 29 27 24 21 20 19 17 15 13 16 16 16 13 10 12 12 16 16 13 17 13 19 21 17 20 19 19 21 21 25 48 60 46 32 31 37 41 35 30 27 28 32 36 42 36 30 36 40 41 38 45 44 43 38 32 38 42 43 45 52 55 57 57 58 59 59 60 62 62 63 65 65 64 65 66 66
49 47 45 40 43 41 41 41 40 40 38 37 34 29 22 20 21 21 23 20 21 18 16 13 17 18 15 13 16 16 15 13 22 21 17 17 18 18 19 25 31 44 60 54 42 29 33 23 36 38 34 29 30 37 36 40 33 36 39 39 41 40 40 39 37 35 44 36 33 45 50 52 53 56 57 58 59 60 60 61 62 63 64 65 64 65 67 67
44 47 47 47 41 37 40 39 41 42 41 38 35 34 29 27 32 32 31 29 29 21 17 19 15 15 12 11 20 22 28 29 30 21 25 25 22 17 16 27 37 51 51 30 38 28 28 23 31 35 34 35 29 31 31 35 32 35 39 39 42 42 45 44 44 47 44 37 33 43 49 51 53 56 57 58 59 59 60 61 62 64 65 65 64 64 65 66
51 49 47 48 44 44 44 42 43 42 39 37 40 39 32 30 31 33 32 29 29 23 18 26 17 13 13 15 21 28 28 17 22 35 28 24 19 26 25 26 28 37 21 22 25 37 31 32 35 36 35 34 34 37 36 39 38 36 39 38 42 45 46 48 50 50 45 47 47 49 50 51 53 55 57 58 60 60 61 62 62 63 64 65 65 65 65 66
49 49 48 49 47 46 45 44 41 40 38 40 38 35 32 29 29 30 33 32 30 29 20 16 17 15 13 15 25 21 23 19 27 22 32 27 23 32 28 28 25 25 24 24 27 30 23 26 44 34 31 33 35 39 38 38 37 38 36 35 36 46 44 48 50 51 51 51 51 52 51 51 55 57 58 59 60 60 60 60 60 61 63 64 64 64 65 65
51 53 51 49 47 46 47 43 40 38 36 37 35 33 32 29 28 31 29 32 31 31 29 31 30 24 18 19 23 16 17 24 30 18 30 25 21 27 22 27 24 24 25 26 28 31 26 30 36 38 29 31 36 37 37 37 39 39 39 37 37 43 44 47 47 48 49 48 50 50 49 50 54 56 58 58 59 59 59 59 60 61 62 63 64 64 64 64
53 53 53 50 45 50 43 41 40 39 37 38 38 39 37 36 35 33 32 32 32 33 30 31 33 31 32 28 27 19 15 15 21 25 20 16 17 20 22 24 19 23 26 29 32 27 33 32 29 32 28 29 37 37 36 36 33 31 37 42 45 48 49 48 48 50 52 50 50 46 46 52 55 57 56 56 58 58 59 60 60 61 62 63 63 63 64 64